WESTFORD NEEDLES, 2367

Orbit data source: Space-Track

WESTFORD NEEDLES, 2367 is space debris originally from a launch on Thu, 09 May 1963 UTC launched from the Air Force Western Test Range (AFWTR). Debris objects in space refer to the collection of defunct objects orbiting the Earth. Examples of debris include non-operational satellites, rocket bodies, and fragments generated from explosions, collisions, or faulty payload assembly.

Loading next visibility...
WESTFORD NEEDLES details
Identifier
2367, 1963-014S
Orbit
Active
Last TLE update7 months ago
Origin
Flag of USUSAF SSD (US)
ManufacturerUnknown
MissionSpacecraft
Bus & MotorUnknown
MassUnknown
Launch date (UTC)
1963-05-09 (62 years ago)
Launch vehicleUnknown
Launch site
Air Force Western Test Range (AFWTR)
Object type
Payload
Rocket body
Debris
Shape & HBRUnknown
Radar Cross SectionMedium (>0.1 m² and <1 m²)

Expand to show TLE details & history

TLE from 7 months ago
0 WESTFORD NEEDLES
1 02367U 63014S   24174.15057807 -.00000003  00000-0  00000-0 0  9997
2 02367  84.9462 235.4878 2539886 282.9809  50.1843  8.87712911947228
Epoch: 2024-06-22T03:36Z
Definitive object data (Epoch: 2024-06-22T03:36:49.945Z)
Latitude-0.00001°
Longitude-89.53835°
Altitude2,347.429 km
Speed7.137 km/s
True Right ascension15h 41m 57s
True Declination0° 00' 00"
Sunlit
Object was in full shadow at TLE epoch
Visualization TLE readout
Latitude-51.43883°
Longitude49.69469°
Altitude5,594.003 km
Speed5.118 km/s
Apparent Right ascension01h 54m 25s
Apparent Declination-48° 37' 29"
Sunlit
Object is in daylight
Visualization observer readout
Local Sidereal Time15:20:18
Azimuth126.778° SE
Elevation-72.419°
Doppler factor1
Orbital elements
Apogee altitude5,973.969 km
Perigee altitude970.264 km
Semi-major axis9,850.254 km
Eccentricity0.2539886
Inclination84.9462°
RAAN235.4878°
Arg. of periapsis282.9809°
True anomaly77.12024°
Mean anomaly50.1843°
Eccentric anomaly63.17022°
Mean motion2.2201 °/min
BSTARUnknown
Orbital period162.16 mins
Loading maneuver chart data...

WESTFORD NEEDLES Visibility forecast

Observer location: undefined°, undefined

Span
Click to sort rows by Start time (UTC) header in descending order
Start Az.
Max El. time (UTC)
Max El. Az.
Max El.
End time (UTC)
End Az.
40 mins2025-01-23 20:59:07.218Z9.231° NNE2025-01-23 21:13:07.218Z76.637° E33.568°2025-01-23 21:39:07.218Z144.552° SSE
41 mins2025-01-23 23:43:07.218Z346.585° N2025-01-23 23:56:07.218Z275.462° WNW41.912°2025-01-24 00:24:07.218Z201.469° SSW
9 mins2025-01-24 02:33:07.218Z305.128° NW2025-01-24 02:36:07.218Z295.292° NW11.823°2025-01-24 02:42:07.218Z278.69° WNW
7 mins2025-01-24 10:08:07.218Z110.014° ESE2025-01-24 10:11:07.218Z71.706° E18.884°2025-01-24 10:15:07.218Z32.521° NE
7 mins2025-01-24 12:51:07.218Z257.928° W2025-01-24 12:54:07.218Z299.504° NW21.092°2025-01-24 12:58:07.218Z338.943° N
|